Location: Stilling
(56.0622°N, 9.9882°E)
Time: 13:19:03
(UTC+00:00)

SL-16 R/B - Pass Details

Date: 13 July 2020
Orbit: 839 x 850 km, 71.0° (Epoch: 07 August)

Event Time Altitude Azimuth Distance (km) Brightness Sun altitude
Rises 22:48:48 0° 232° (SW) 3,401 5.1 -11.9°
Reaches altitude 10° 22:51:18 10° 238° (WSW) 2,471 4.4 -11.9°
Maximum altitude 22:56:50 52° 314° (NW) 1,053 3.1 -12.0°
Drops below altitude 10° 23:02:25 10° 31° (NNE) 2,489 5.5 -12.1°
Sets 23:04:58 0° 36° (NE) 3,428 6.2 -12.2°
